User: anonymous   Login
Location: *
(17.3280°S, 114.7300°W)
Time: 11:02:48
(UTC+00:00)
Language:

Cosmos 2315 Rocket - Orbit

View from above orbital plane
View from above orbital plane
View from above satellite
View from above satellite

Ground track
Ground track

The orbit data is extracted from the following two-line orbital elements,

1 23604U 95032B   20299.78516488 -.00000040 +00000-0 -58130-4 0  9990
2 23604 082.9017 324.0676 0025452 065.8872 294.4942 13.74289949269261
Epoch (UTC): 25 October 2020 18:50:38
Eccentricity: 0.0025452
inclination: 82.9017°
perigee height: 965 km
apogee height: 1003 km
right ascension of ascending node: 324.0676°
argument of perigee: 65.8872°
revolutions per day: 13.74289949
mean anomaly at epoch: 294.4942°
orbit number at epoch: 26926

The dashed part of the orbit path shows where the satellite is in the earth's shadow,  

DLR